| time (UTC) | temp F | wind direction | speed knots | gust knots | rain 1hr in | rain 24hr in | rain mn in | humidity % | barometer mb |
| 20260504050306 | 55 | 17 | 8.7 | 13.9 | 0.00 | 0.00 | 0.00 | 85 | 1008.6 |
| 20260504045806 | 55 | 320 | 7.8 | 20.0 | 0.00 | 0.00 | 0.00 | 86 | 1008.5 |
| 20260504045306 | 55 | 328 | 7.0 | 12.2 | 0.00 | 0.00 | 0.00 | 87 | 1008.4 |
| 20260504044806 | 55 | 343 | 7.0 | 14.8 | 0.00 | 0.00 | 0.00 | 87 | 1008.3 |
| 20260504044306 | 55 | 317 | 7.0 | 12.2 | 0.00 | 0.00 | 0.00 | 87 | 1008.3 |
| 20260504043806 | 55 | 304 | 7.8 | 14.8 | 0.00 | 0.00 | 0.00 | 87 | 1008.4 |
| 20260504043306 | 55 | 317 | 8.7 | 13.0 | 0.00 | 0.00 | 0.00 | 85 | 1008.3 |
| 20260504042806 | 55 | 348 | 7.8 | 20.0 | 0.00 | 0.00 | 0.00 | 85 | 1008.2 |
| 20260504042306 | 55 | 333 | 7.8 | 16.5 | 0.00 | 0.00 | 0.00 | 86 | 1008.2 |
| 20260504041806 | 54 | 328 | 7.8 | 13.0 | 0.00 | 0.00 | 0.00 | 86 | 1008.1 |
| 20260504041306 | 54 | 327 | 7.8 | 13.9 | 0.00 | 0.00 | 0.00 | 87 | 1008.1 |
| 20260504040806 | 54 | 325 | 6.1 | 13.9 | 0.00 | 0.00 | 0.00 | 87 | 1008.1 |
| 20260504040306 | 54 | 355 | 7.0 | 12.2 | 0.00 | 0.00 | 0.00 | 89 | 1008.1 |
| 20260504035807 | 54 | 272 | 7.8 | 14.8 | 0.00 | 0.00 | 0.00 | 88 | 1008.0 |
| 20260504035306 | 54 | 314 | 7.0 | 14.8 | 0.00 | 0.00 | 0.00 | 90 | 1008.1 |
| 20260504034806 | 53 | 355 | 7.0 | 10.4 | 0.00 | 0.00 | 0.00 | 91 | 1008.1 |
| 20260504034306 | 53 | 339 | 7.0 | 12.2 | 0.00 | 0.00 | 0.00 | 90 | 1008.3 |
| 20260504033806 | 53 | 317 | 7.8 | 13.0 | 0.00 | 0.00 | 0.00 | 88 | 1008.4 |
| 20260504033306 | 54 | 355 | 9.6 | 15.6 | 0.00 | 0.00 | 0.00 | 87 | 1008.4 |
| 20260504032806 | 54 | 296 | 8.7 | 19.1 | 0.00 | 0.00 | 0.00 | 85 | 1008.4 |
| 20260504032306 | 54 | 302 | 7.0 | 13.9 | 0.00 | 0.00 | 0.00 | 83 | 1008.4 |
| 20260504031806 | 54 | 344 | 7.0 | 10.4 | 0.00 | 0.00 | 0.00 | 84 | 1008.3 |
| 20260504031306 | 54 | 0 | 8.7 | 13.0 | 0.00 | 0.00 | 0.00 | 84 | 1008.3 |
| 20260504030806 | 54 | 344 | 8.7 | 14.8 | 0.00 | 0.00 | 0.00 | 84 | 1008.3 |
| 20260504030306 | 54 | 331 | 8.7 | 14.8 | 0.00 | 0.00 | 0.00 | 87 | 1008.4 |
| 20260504025806 | 53 | 321 | 8.7 | 17.4 | 0.00 | 0.00 | 0.00 | 87 | 1008.4 |
| 20260504025306 | 53 | 302 | 7.8 | 16.5 | 0.00 | 0.00 | 0.00 | 88 | 1008.5 |
| 20260504024806 | 53 | 355 | 6.1 | 13.9 | 0.00 | 0.00 | 0.00 | 87 | 1008.8 |
| 20260504024306 | 53 | 321 | 7.0 | 10.4 | 0.00 | 0.00 | 0.00 | 88 | 1008.7 |
| 20260504023806 | 53 | 315 | 7.0 | 14.8 | 0.00 | 0.00 | 0.00 | 88 | 1008.9 |
| 20260504023306 | 53 | 333 | 7.0 | 13.9 | 0.00 | 0.00 | 0.00 | 86 | 1008.9 |
| 20260504022807 | 53 | 343 | 7.0 | 13.0 | 0.00 | 0.00 | 0.00 | 85 | 1009.0 |
| 20260504022306 | 53 | 284 | 6.1 | 11.3 | 0.00 | 0.00 | 0.00 | 87 | 1009.0 |
| 20260504021806 | 53 | 306 | 7.8 | 12.2 | 0.00 | 0.00 | 0.00 | 87 | 1009.2 |
| 20260504021307 | 52 | 5 | 7.8 | 13.9 | 0.00 | 0.00 | 0.00 | 87 | 1009.3 |
| 20260504020807 | 52 | 315 | 7.0 | 13.0 | 0.00 | 0.00 | 0.00 | 86 | 1009.5 |
| 20260504020307 | 52 | 13 | 5.2 | 13.0 | 0.00 | 0.00 | 0.00 | 86 | 1009.5 |
| 20260504015807 | 52 | 15 | 6.1 | 8.7 | 0.00 | 0.00 | 0.00 | 86 | 1009.4 |
| 20260504014807 | 52 | 351 | 6.1 | 11.3 | 0.00 | 0.00 | 0.00 | 87 | 1009.6 |
| 20260504014307 | 52 | 0 | 6.1 | 13.0 | 0.00 | 0.00 | 0.00 | 87 | 1009.6 |
| 20260504013807 | 52 | 343 | 6.1 | 11.3 | 0.00 | 0.00 | 0.00 | 88 | 1009.7 |
| 20260504013307 | 51 | 0 | 7.0 | 8.7 | 0.00 | 0.00 | 0.00 | 88 | 1009.7 |
| 20260504012807 | 51 | 355 | 7.0 | 16.5 | 0.00 | 0.00 | 0.00 | 88 | 1009.9 |
| 20260504012307 | 51 | 340 | 7.0 | 13.0 | 0.00 | 0.03 | 0.00 | 88 | 1010.0 |
| 20260504011807 | 51 | 338 | 7.0 | 10.4 | 0.00 | 0.03 | 0.00 | 88 | 1010.0 |
| 20260504011307 | 51 | 334 | 7.0 | 10.4 | 0.00 | 0.03 | 0.00 | 88 | 1010.0 |
| 20260504010807 | 51 | 326 | 6.1 | 12.2 | 0.00 | 0.03 | 0.00 | 88 | 1010.0 |
| 20260504010307 | 51 | 346 | 6.1 | 10.4 | 0.00 | 0.03 | 0.00 | 88 | 1010.0 |
| 20260504005807 | 50 | 329 | 6.1 | 15.6 | 0.00 | 0.03 | 0.00 | 88 | 1010.0 |
| 20260504005307 | 50 | 15 | 6.1 | 13.0 | 0.00 | 0.03 | 0.00 | 89 | 1009.9 |
| 20260504004807 | 50 | 348 | 6.1 | 11.3 | 0.00 | 0.03 | 0.00 | 89 | 1009.9 |
| 20260504004307 | 49 | 306 | 6.1 | 13.9 | 0.00 | 0.03 | 0.00 | 90 | 1009.9 |
| 20260504003807 | 49 | 13 | 5.2 | 10.4 | 0.00 | 0.03 | 0.00 | 90 | 1009.9 |
| 20260504003307 | 49 | 39 | 6.1 | 9.6 | 0.00 | 0.03 | 0.00 | 90 | 1010.0 |
| 20260504002807 | 49 | 330 | 6.1 | 13.9 | 0.00 | 0.03 | 0.00 | 89 | 1009.9 |
| 20260504002307 | 49 | 5 | 6.1 | 11.3 | 0.00 | 0.23 | 0.00 | 89 | 1009.9 |
| 20260504001807 | 49 | 347 | 6.1 | 12.2 | 0.00 | 0.23 | 0.00 | 89 | 1009.9 |
| 20260504001307 | 49 | 47 | 6.1 | 9.6 | 0.00 | 0.23 | 0.00 | 89 | 1009.8 |
| 20260504000807 | 49 | 5 | 7.0 | 14.8 | 0.00 | 0.23 | 0.00 | 88 | 1009.8 |
| 20260504000307 | 49 | 327 | 6.1 | 13.9 | 0.00 | 0.23 | 0.00 | 89 | 1009.8 |
| 20260503235807 | 49 | 340 | 6.1 | 11.3 | 0.00 | 0.23 | 0.00 | 89 | 1009.7 |
| 20260503235307 | 49 | 338 | 7.0 | 13.0 | 0.00 | 0.23 | 0.00 | 90 | 1009.7 |
| 20260503234807 | 48 | 348 | 7.0 | 16.5 | 0.00 | 0.23 | 0.00 | 89 | 1009.7 |
| 20260503234307 | 48 | 327 | 7.0 | 13.9 | 0.00 | 0.23 | 0.00 | 89 | 1009.7 |
| 20260503233807 | 48 | 5 | 7.8 | 11.3 | 0.00 | 0.23 | 0.00 | 90 | 1009.8 |
| 20260503233307 | 48 | 329 | 7.8 | 14.8 | 0.00 | 0.23 | 0.00 | 89 | 1009.7 |
| 20260503232807 | 48 | 342 | 7.0 | 13.0 | 0.00 | 0.23 | 0.00 | 90 | 1009.7 |
| 20260503232307 | 48 | 0 | 7.8 | 15.6 | 0.00 | 0.54 | 0.00 | 89 | 1009.8 |
| 20260503231807 | 48 | 322 | 7.8 | 14.8 | 0.00 | 0.54 | 0.00 | 89 | 1009.8 |
| 20260503231307 | 48 | 340 | 7.8 | 13.9 | 0.00 | 0.54 | 0.00 | 89 | 1009.9 |
| 20260503230807 | 48 | 350 | 8.7 | 14.8 | 0.00 | 0.54 | 0.00 | 89 | 1009.7 |
| 20260503230307 | 48 | 310 | 8.7 | 16.5 | 0.00 | 0.54 | 0.00 | 89 | 1009.9 |
| 20260503225807 | 48 | 315 | 7.8 | 13.9 | 0.00 | 0.54 | 0.00 | 89 | 1009.8 |
| 20260503225307 | 48 | 0 | 7.0 | 13.0 | 0.00 | 0.54 | 0.00 | 89 | 1009.8 |
| 20260503224807 | 48 | 334 | 7.0 | 10.4 | 0.00 | 0.54 | 0.00 | 89 | 1009.9 |
| 20260503224307 | 48 | 346 | 7.0 | 11.3 | 0.00 | 0.54 | 0.00 | 89 | 1009.8 |
| 20260503223807 | 48 | 330 | 6.1 | 13.9 | 0.00 | 0.54 | 0.00 | 89 | 1009.8 |
| 20260503223307 | 48 | 312 | 6.1 | 10.4 | 0.00 | 0.54 | 0.00 | 89 | 1009.7 |
| 20260503222807 | 48 | 336 | 7.0 | 13.0 | 0.00 | 0.54 | 0.00 | 89 | 1009.7 |
| 20260503222307 | 48 | 320 | 6.1 | 13.9 | 0.00 | 0.69 | 0.00 | 89 | 1009.7 |
| 20260503221807 | 48 | 345 | 6.1 | 11.3 | 0.00 | 0.69 | 0.00 | 88 | 1009.6 |
| 20260503221307 | 48 | 5 | 6.1 | 12.2 | 0.00 | 0.69 | 0.00 | 88 | 1009.7 |
| 20260503220807 | 47 | 336 | 6.1 | 11.3 | 0.00 | 0.69 | 0.00 | 88 | 1009.6 |
| 20260503220307 | 47 | 355 | 6.1 | 10.4 | 0.00 | 0.69 | 0.00 | 88 | 1009.6 |
| 20260503215807 | 47 | 319 | 6.1 | 13.0 | 0.00 | 0.69 | 0.00 | 88 | 1009.7 |
| 20260503215307 | 47 | 329 | 6.1 | 12.2 | 0.00 | 0.69 | 0.00 | 87 | 1009.6 |
| 20260503214807 | 47 | 333 | 6.1 | 12.2 | 0.00 | 0.69 | 0.00 | 88 | 1009.7 |
| 20260503214307 | 47 | 346 | 5.2 | 12.2 | 0.00 | 0.69 | 0.00 | 88 | 1009.6 |
| 20260503213807 | 47 | 281 | 4.3 | 12.2 | 0.00 | 0.69 | 0.00 | 88 | 1009.6 |
| 20260503213307 | 47 | 40 | 5.2 | 9.6 | 0.00 | 0.69 | 0.00 | 87 | 1009.6 |
| 20260503212807 | 47 | 348 | 5.2 | 10.4 | 0.00 | 0.69 | 0.00 | 87 | 1009.6 |
| 20260503212307 | 47 | 355 | 6.1 | 12.2 | 0.00 | 0.87 | 0.00 | 87 | 1009.6 |
| 20260503211807 | 47 | 0 | 5.2 | 10.4 | 0.00 | 0.87 | 0.00 | 87 | 1009.5 |
| 20260503211307 | 47 | 348 | 5.2 | 10.4 | 0.00 | 0.87 | 0.00 | 87 | 1009.4 |
| 20260503210807 | 47 | 327 | 6.1 | 12.2 | 0.00 | 0.87 | 0.00 | 87 | 1009.3 |
| 20260503210307 | 47 | 355 | 6.1 | 12.2 | 0.00 | 0.87 | 0.00 | 87 | 1009.2 |
| 20260503205807 | 47 | 0 | 5.2 | 10.4 | 0.00 | 0.87 | 0.00 | 86 | 1009.3 |
| 20260503205307 | 47 | 350 | 5.2 | 10.4 | 0.00 | 0.87 | 0.00 | 86 | 1009.1 |
| 20260503204807 | 47 | 355 | 6.1 | 12.2 | 0.00 | 0.87 | 0.00 | 86 | 1009.2 |
| 20260503204307 | 47 | 342 | 6.1 | 14.8 | 0.00 | 0.87 | 0.00 | 86 | 1009.3 |
| 20260503203807 | 47 | 322 | 5.2 | 10.4 | 0.00 | 0.87 | 0.00 | 86 | 1009.2 |
| 20260503203307 | 47 | 5 | 5.2 | 13.0 | 0.00 | 0.87 | 0.00 | 85 | 1009.3 |
| 20260503202807 | 47 | 335 | 5.2 | 9.6 | 0.00 | 0.87 | 0.00 | 85 | 1009.2 |
| 20260503202307 | 47 | 323 | 6.1 | 12.2 | 0.00 | 0.87 | 0.00 | 85 | 1009.1 |
| 20260503201807 | 47 | 27 | 5.2 | 11.3 | 0.00 | 0.87 | 0.00 | 85 | 1009.0 |
| 20260503201307 | 47 | 355 | 4.3 | 8.7 | 0.00 | 0.87 | 0.00 | 85 | 1009.0 |
| 20260503200807 | 47 | 13 | 4.3 | 10.4 | 0.00 | 0.87 | 0.00 | 85 | 1009.0 |
| 20260503200307 | 47 | 336 | 4.3 | 11.3 | 0.00 | 0.87 | 0.00 | 84 | 1009.1 |
| 20260503195807 | 47 | 341 | 4.3 | 8.7 | 0.00 | 0.87 | 0.00 | 84 | 1009.1 |
| 20260503195307 | 47 | 344 | 4.3 | 9.6 | 0.00 | 0.87 | 0.00 | 84 | 1009.1 |
| 20260503194807 | 47 | 324 | 5.2 | 9.6 | 0.00 | 0.87 | 0.00 | 84 | 1009.2 |
| 20260503194307 | 48 | 22 | 5.2 | 10.4 | 0.00 | 0.87 | 0.00 | 83 | 1009.2 |
| 20260503193807 | 48 | 329 | 5.2 | 9.6 | 0.00 | 0.87 | 0.00 | 83 | 1009.2 |
| 20260503193307 | 48 | 331 | 5.2 | 13.9 | 0.00 | 0.87 | 0.00 | 82 | 1009.4 |
| 20260503192807 | 48 | 0 | 5.2 | 9.6 | 0.00 | 0.87 | 0.00 | 82 | 1009.2 |
| 20260503192307 | 48 | 323 | 4.3 | 9.6 | 0.00 | 0.91 | 0.00 | 82 | 1009.3 |
| 20260503191807 | 48 | 305 | 5.2 | 8.7 | 0.00 | 0.91 | 0.00 | 82 | 1009.4 |
| 20260503191307 | 48 | 320 | 6.1 | 12.2 | 0.00 | 0.91 | 0.00 | 82 | 1009.3 |
| 20260503190807 | 48 | 326 | 5.2 | 11.3 | 0.00 | 0.91 | 0.00 | 82 | 1009.5 |
| 20260503190307 | 48 | 322 | 5.2 | 12.2 | 0.00 | 0.91 | 0.00 | 82 | 1009.3 |
| 20260503185807 | 48 | 355 | 5.2 | 10.4 | 0.00 | 0.91 | 0.00 | 82 | 1009.4 |
| 20260503185307 | 48 | 308 | 5.2 | 13.9 | 0.00 | 0.91 | 0.00 | 81 | 1009.4 |
| 20260503184807 | 49 | 344 | 5.2 | 11.3 | 0.00 | 0.91 | 0.00 | 81 | 1009.4 |
| 20260503184307 | 49 | 9 | 5.2 | 13.9 | 0.00 | 0.91 | 0.00 | 81 | 1009.4 |
| 20260503183807 | 49 | 0 | 5.2 | 11.3 | 0.00 | 0.91 | 0.00 | 81 | 1009.4 |
| 20260503183307 | 48 | 355 | 5.2 | 11.3 | 0.00 | 0.91 | 0.00 | 81 | 1009.5 |
| 20260503182807 | 48 | 355 | 5.2 | 13.0 | 0.00 | 0.91 | 0.00 | 82 | 1009.5 |
| 20260503182307 | 48 | 10 | 5.2 | 9.6 | 0.00 | 1.22 | 0.00 | 82 | 1009.5 |
| 20260503181807 | 48 | 21 | 4.3 | 9.6 | 0.00 | 1.22 | 0.00 | 82 | 1009.6 |
| 20260503181308 | 48 | 0 | 5.2 | 8.7 | 0.00 | 1.22 | 0.00 | 82 | 1009.7 |
| 20260503180807 | 48 | 338 | 5.2 | 10.4 | 0.00 | 1.22 | 0.00 | 82 | 1009.7 |
| 20260503180307 | 48 | 327 | 5.2 | 8.7 | 0.00 | 1.22 | 0.00 | 82 | 1009.7 |
| 20260503175807 | 48 | 31 | 5.2 | 10.4 | 0.00 | 1.22 | 0.00 | 82 | 1009.8 |
| 20260503175307 | 48 | 343 | 5.2 | 11.3 | 0.00 | 1.22 | 0.00 | 82 | 1009.8 |
| 20260503174807 | 48 | 0 | 5.2 | 14.8 | 0.00 | 1.22 | 0.00 | 82 | 1009.7 |
| 20260503174307 | 48 | 346 | 5.2 | 13.0 | 0.00 | 1.22 | 0.00 | 82 | 1009.8 |
| 20260503173807 | 48 | 5 | 5.2 | 12.2 | 0.00 | 1.22 | 0.00 | 82 | 1009.8 |
| 20260503173307 | 48 | 19 | 5.2 | 9.6 | 0.00 | 1.22 | 0.00 | 81 | 1009.7 |
| 20260503172807 | 48 | 331 | 4.3 | 11.3 | 0.00 | 1.22 | 0.00 | 81 | 1009.8 |
| 20260503172307 | 48 | 30 | 4.3 | 13.0 | 0.00 | 1.22 | 0.00 | 82 | 1010.0 |
| 20260503171807 | 48 | 0 | 4.3 | 11.3 | 0.00 | 1.22 | 0.00 | 81 | 1010.0 |
| 20260503171307 | 48 | 21 | 5.2 | 8.7 | 0.00 | 1.22 | 0.00 | 81 | 1010.0 |
| 20260503170807 | 48 | 327 | 5.2 | 8.7 | 0.00 | 1.22 | 0.00 | 81 | 1010.1 |
| 20260503170307 | 48 | 323 | 5.2 | 10.4 | 0.00 | 1.22 | 0.00 | 81 | 1010.1 |
| 20260503150808 | 48 | 29 | 3.5 | 8.7 | 0.00 | 1.24 | 0.00 | 81 | 1010.5 |
| 20260503150308 | 48 | 28 | 3.5 | 7.8 | 0.00 | 1.24 | 0.00 | 81 | 1010.7 |
| 20260503140308 | 49 | 0 | 3.5 | 8.7 | 0.00 | 1.28 | 0.00 | 81 | 1011.0 |
| 20260503131308 | 49 | 350 | 4.3 | 8.7 | 0.00 | 1.29 | 1.29 | 80 | 1011.3 |
| 20260503130808 | 50 | 339 | 3.5 | 9.6 | 0.00 | 1.29 | 1.29 | 80 | 1011.3 |
| 20260503130308 | 50 | 14 | 3.5 | 7.0 | 0.00 | 1.29 | 1.29 | 80 | 1011.3 |
| 20260503110808 | 52 | 337 | 5.2 | 7.8 | 0.00 | 1.29 | 1.29 | 79 | 1011.5 |
| 20260503110308 | 52 | 303 | 5.2 | 13.9 | 0.00 | 1.29 | 1.29 | 78 | 1011.4 |
| 20260503090308 | 53 | 336 | 4.3 | 10.4 | 0.00 | 1.33 | 1.29 | 80 | 1011.0 |
| 20260503081308 | 54 | 272 | 4.3 | 7.0 | 0.00 | 1.37 | 1.29 | 78 | 1009.9 |
| 20260503080808 | 54 | 321 | 4.3 | 8.7 | 0.00 | 1.37 | 1.29 | 78 | 1009.9 |
| 20260503080308 | 54 | 316 | 4.3 | 8.7 | 0.00 | 1.37 | 1.29 | 78 | 1009.8 |
| 20260503072808 | 55 | 325 | 4.3 | 7.8 | 0.00 | 1.37 | 1.29 | 77 | 1009.6 |
| 20260503072308 | 55 | 336 | 4.3 | 9.6 | 0.00 | 1.43 | 1.29 | 77 | 1009.6 |
| 20260503071809 | 55 | 315 | 3.5 | 7.0 | 0.00 | 1.43 | 1.29 | 77 | 1009.4 |
| 20260503071308 | 55 | 355 | 4.3 | 8.7 | 0.00 | 1.43 | 1.29 | 76 | 1009.4 |
| 20260503070808 | 56 | 0 | 4.3 | 9.6 | 0.00 | 1.43 | 1.29 | 76 | 1009.4 |
| 20260503070308 | 56 | 15 | 5.2 | 10.4 | 0.00 | 1.43 | 1.29 | 76 | 1009.4 |
| 20260503060309 | 55 | 342 | 5.2 | 9.6 | 0.00 | 1.43 | 1.29 | 83 | 1009.2 |
| 20260503054809 | 56 | 340 | 5.2 | 7.8 | 0.00 | 1.43 | 1.29 | 84 | 1009.2 |
| 20260503054309 | 56 | 339 | 5.2 | 9.6 | 0.00 | 1.43 | 1.29 | 84 | 1009.3 |
| 20260503053809 | 56 | 350 | 5.2 | 10.4 | 0.00 | 1.43 | 1.29 | 84 | 1009.3 |
| 20260503053309 | 55 | 336 | 4.3 | 10.4 | 0.00 | 1.43 | 1.29 | 84 | 1009.5 |
| 20260503052809 | 55 | 336 | 4.3 | 9.6 | 0.00 | 1.43 | 1.29 | 84 | 1009.3 |
| 20260503052309 | 55 | 355 | 6.1 | 8.7 | 0.00 | 1.43 | 1.29 | 85 | 1009.4 |